Regional Weather Roundup
Issued by NWS

Home | Current Version | Previous Version | Text Only | Print | Product List | Glossary Off
Versions: 1 2 3 4 5 6 7 8 9 10 11 12 13 14 15 16 17 18 19 20 21 22 23 24 25 26 27 28 29 30 31 32 33 34 35 36 37 38 39 40 41 42 43 44 45 46 47 48 49 50

000
ASUS43 KMKX 270521
RWRWI

WISCONSIN REGIONAL WEATHER ROUNDUP
NATIONAL WEATHER SERVICE MILWAUKEE/SULLIVAN WI
1100 PM CST THU FEB 26 2015

NOTE: "FAIR" INDICATES FEW OR NO CLOUDS BELOW 12,000 FEET WITH NO
SIGNIFICANT WEATHER AND/OR OBSTRUCTIONS TO VISIBILITY.

WIZ001-002-006>008-014>016-023>028-270600-
NORTHWEST WISCONSIN

CITY           SKY/WX    TMP DP  RH WIND       PRES   REMARKS
SUPERIOR ARPT  CLEAR      2 -12  52 W6        30.45F WCI -10
ASHLAND        CLEAR     -2 -12  62 SW8       30.41S WCI -17
HAYWARD        CLEAR    -11 -18  71 CALM      30.39S
SIREN          CLEAR     -4 -13  66 CALM      30.45S
CUMBERLAND     CLEAR     -4 -15  59 NW7       30.40S WCI -18
RICE LAKE      CLEAR     -3 -12  64 CALM      30.43F
CHETEK         CLEAR     -3 -11  67 CALM      30.42S
LADYSMITH      CLEAR     -7 -14  72 CALM      30.40S
EAU CLAIRE     CLEAR     -2 -12  62 SW3       30.45R
MENOMONIE      CLEAR      1 -10  59 W5        30.45S WCI  -9
NEW RICHMOND   CLEAR     -3 -11  70 W5        30.46R WCI -14
OSCEOLA        CLEAR     -1 -10  65 W5        30.50R WCI -11
$$

WIZ003>005-009-010-017-018-270600-
NORTH CENTRAL WISCONSIN

CITY           SKY/WX    TMP DP  RH WIND       PRES   REMARKS
MANITOWISH WTR CLEAR    -12 -18  75 CALM      30.30S
ARBOR VITAE    FAIR      -9 -15  73 CALM      30.30S
WOODRUFF       FAIR      -9 -15  73 CALM      30.30S
RHINELANDER    CLEAR    -10 -17  71 W6        30.30F WCI -23
EAGLE RIVER    CLEAR    -15 -21  73 CALM      30.29S
LAND O LAKES   CLEAR    -21 -28  72 CALM      30.29S
PHILLIPS       CLEAR    -14 -19  79 CALM      30.33F
TOMAHAWK       CLEAR    -15 -21  76 CALM      30.33F
MEDFORD        CLEAR     -7 -14  71 W5        30.34S WCI -18
MERRILL        CLEAR    -10 -16  75 CALM      30.35S
$$

WIZ029-030-035-036-043>047-270600-
CENTRAL WISCONSIN

CITY           SKY/WX    TMP DP  RH WIND       PRES   REMARKS
WAUSAU         CLEAR      0 -11  59 NW6       30.36R WCI -12
MOSINEE        CLEAR      0  -9  65 W6        30.37S WCI -12
MARSHFIELD     CLEAR     -1 -12  59 W6        30.38R WCI -13
STEVENS POINT  CLEAR     -1 -11  65 W3        30.39S
WAUPACA        CLEAR      5  -8  55 W5        30.41S WCI  -4
WAUTOMA        CLEAR     -1 -11  63 NW7       30.42S WCI -14
WISC RAPIDS    CLEAR     -1 -13  56 NW7       30.41F WCI -14
CAMP DOUGLAS   CLEAR     -4  -9  79 W6        30.43S WCI -17
$$

WIZ011>013-019>022-031-037>040-048>050-270600-
NORTHEAST WISCONSIN

CITY           SKY/WX    TMP DP  RH WIND       PRES   REMARKS
ANTIGO         CLEAR     -5 -12  72 NW5       30.32S WCI -16
SHAWANO        CLEAR      3  -9  57 W3        30.40R
OCONTO         CLEAR     -8 -11  86 CALM      30.40S
STURGEON BAY   CLEAR      1  -8  66 NW5       30.40R WCI  -8
GREEN BAY      CLEAR      1  -6  72 W8        30.40R WCI -13
MANITOWOC      CLEAR      0  -6  76 W7        30.40R WCI -13
APPLETON       CLEAR      3  -8  60 W10       30.39R WCI -12
CLINTONVILLE   CLEAR      1  -9  60 W6        30.39S WCI -10
OSHKOSH        CLEAR      4  -7  60 W7        30.39S WCI  -8
$$

WIZ032>034-041-042-053>061-270600-
SOUTHWEST WISCONSIN

CITY           SKY/WX    TMP DP  RH WIND       PRES   REMARKS
LA CROSSE      CLEAR     -1  -9  68 CALM      30.49S
SPARTA         CLEAR    -11 -16  78 CALM      30.46F
VIROQUA        CLEAR      0  -8  70 W5        30.40F WCI -10
BOSCOBEL       FAIR      -5 -10  79 CALM      30.49S
PRAIRIE DU CHI CLEAR     -1 -11  65 CALM      30.50F
PLATTEVILLE    CLEAR     -2  -8  75 W5        30.44S WCI -12
$$

WIZ056-057-062-063-064-067-068-270600-
SOUTH CENTRAL WISCONSIN

CITY           SKY/WX    TMP DP  RH WIND       PRES   REMARKS
REEDSBURG      CLEAR      1  -8  63 W6        30.43S WCI -10
BARABOO/DELLS  CLEAR      0  -9  63 W5        30.42S WCI -10
LONE ROCK      CLEAR     -1  -9  68 W7        30.47R WCI -14
MINERAL POINT  CLEAR      0  -8  71 CALM      30.41S
MADISON        CLEAR      2  -8  63 NW5       30.43R WCI  -8
MIDDLETON      CLEAR      1  -9  64 CALM      30.43R
WATERTOWN      CLEAR     -6 -11  80 CALM      30.41S
MONROE         CLEAR      3  -6  66 NW8       30.40S WCI -10
JANESVILLE     CLEAR     -4  -8  84 CALM      30.43S
$$

WIZ051-052-058>065-066-070>072-270600-
SOUTHEAST WISCONSIN

CITY           SKY/WX    TMP DP  RH WIND       PRES   REMARKS
MILWAUKEE      CLEAR      6  -5  60 CALM      30.42R
WAUKESHA       CLEAR      1  -6  71 W6        30.41S WCI -10
MILWAUKEE/TIMM CLEAR      3  -6  66 W3        30.43S
RACINE         CLEAR      3  -7  63 W7        30.43S WCI  -9
BURLINGTON     CLEAR     -9 -14  78 CALM      30.42S
KENOSHA        CLEAR     -3 -11  68 W6        30.41S WCI -15
FOND DU LAC    CLEAR      4  -8  57 W10       30.40S WCI -11
SHEBOYGAN      CLEAR      2  -7  66 W7        30.40R WCI -11
WEST BEND      CLEAR      3  -6  66 W6        30.40R WCI  -8
JUNEAU         CLEAR      2  -7  64 NW3       30.41S
$$

LSZ147-162-270600-
LAKE SUPERIOR

STATION/POSITION TIME  TEMP    WIND        PRES    WAVE
                       AIR SEA DIR/SP/G            HT/PER
                 (UTC) (F)     (DEG/KT/KT) (MB)    (FT/S)
DEVILS ISLAND    0500    7     310/ 13/ 15 1031.4R
PORT WING        0400    8     300/ 12/ 17 1030.5R
$$

LMZ867-665-643>646-270600-
LAKE MICHIGAN

STATION/POSITION TIME  TEMP    WIND        PRES    WAVE
                       AIR SEA DIR/SP/G            HT/PER
                 (UTC) (F)     (DEG/KT/KT) (MB)    (FT/S)
NORTHPORT PIER   0425    3     250/  5/  6 1028.8R
SISTER BAY       0313    1        CALM       N/A
KEWAUNEE LAKESHO 0400    0     300/  2/  4 1028.1R
SHEBOYGAN LAKESH 0500    6     270/ 11/ 14 1031.3F
PORT WASHINGTON  0400    6     290/  4/  5 1030.8R
MILWAUKEE LAKESH 0500    9     290/  6/  7   N/A
KENOSHA   LAKESH 0500    6     290/  8/  9 1030.1R
$$

TC  - TEMPERATURE IN CELSIUS
VSB - VISIBILITY IN STATUTE MILES
WCI - WIND CHILL INDEX
HX  - HEAT INDEX



USA.gov is the U.S. government's official web portal to all federal, state and local government web resources and services.